[[{"header":{"parameterUnit":"m.s-1","parameterCategory":1,"la1":30.2991,"la2":30.254,"lo1":-89.0895,"lo2":-89.0444,"dy":0.0017,"dx":0.0017,"nx":28,"ny":28,"refTime":"2024-05-21T21:00:00:Z","depth":0,"parameterNumber":2,"parameterNumberName":"U-component_of_WINDS"},"data":[0,0,0,0,0,0,0,0,0,0,0,0,0,0,0,0,0,0,0,0,0,0,0,0,0,0,0,0,0,0,0,0,0,0,0,0,0,0,0,0,0,0,0,0,0,0,0,0,0,0,0,0,0,0,0,0,0,0,-3.2253,-3.2253,0,-3.2256,-3.2256,-3.2256,-3.2216,-3.2215,-3.2214,-3.2213,-3.2216,-3.2217,-3.2218,0,0,0,0,0,0,0,0,0,0,0,0,0,-3.2216,-3.2217,-3.2253,-3.2253,-3.2253,-3.2256,-3.2256,-3.2256,-3.2216,-3.2215,-3.2213,-3.2212,-3.2215,-3.2217,-3.2218,0,0,0,0,0,0,0,0,0,0,0,0,0,-3.2227,-3.2218,-3.2253,-3.2234,-3.2232,-3.2255,-3.2256,-3.2256,-3.2216,-3.2215,-3.2213,-3.2211,-3.2215,-3.2217,-3.2218,-3.2261,0,0,-3.2223,-3.2224,0,0,0,0,0,0,0,0,-3.2226,-3.2228,-3.2236,-3.2235,-3.2233,-3.2234,-3.2244,-3.2257,-3.2217,-3.2222,-3.2213,-3.2211,-3.2223,-3.2224,-3.2228,-3.2261,-3.2261,-3.2223,-3.2224,-3.2225,-3.2226,0,0,0,0,0,0,0,-3.2226,-3.2228,-3.2254,-3.2237,-3.2235,-3.2226,-3.2225,-3.2246,-3.2232,-3.2222,-3.2219,-3.2219,-3.2222,-3.2227,-3.2228,-3.2261,-3.2223,-3.2225,-3.2226,-3.2227,-3.2331,-3.2333,0,0,0,0,0,0,-3.2227,-3.2228,-3.2254,-3.2254,-3.2226,-3.2228,-3.2227,-3.2235,-3.2231,-3.2229,-3.2221,-3.2218,-3.2225,-3.2226,-3.2228,-3.2278,-3.2225,-3.2227,-3.2228,-3.233,-3.2332,-3.2334,0,0,0,0,0,0,-3.2227,-3.223,-3.2254,-3.224,-3.2242,-3.223,-3.2239,-3.2236,-3.224,-3.2231,-3.2228,-3.2228,-3.2223,-3.2225,-3.2253,-3.2277,-3.2227,-3.2229,-3.2327,-3.233,-3.2333,-3.2378,0,0,0,0,0,0,-3.2226,-3.223,-3.2245,-3.2241,-3.2243,-3.2278,-3.2241,-3.2237,-3.2243,-3.2239,-3.2237,-3.2235,-3.2222,-3.2251,-3.2255,-3.2279,-3.223,-3.2325,-3.2329,-3.2332,-3.2374,-3.2382,-3.2389,0,0,0,0,0,-3.2225,-3.2258,-3.2246,-3.225,-3.2262,-3.228,-3.2281,-3.2266,-3.2245,-3.2261,-3.2256,-3.2235,-3.2275,-3.2254,-3.2258,-3.2283,-3.2324,-3.2328,-3.2332,-3.2371,-3.2381,-3.2389,0,0,0,0,0,0,-3.2265,-3.2257,-3.2244,-3.2276,-3.2279,-3.2273,-3.2292,-3.2276,-3.2285,-3.228,-3.2261,-3.2261,-3.2292,-3.2291,-3.2268,-3.2325,-3.2296,-3.2301,-3.2324,-3.2333,-3.234,-3.2339,-3.2232,0,0,0,0,0,-3.2278,-3.2292,-3.2285,-3.2314,-3.2316,-3.2304,-3.2311,-3.23,-3.2302,-3.2303,-3.2299,-3.2302,-3.2316,-3.2325,-3.2336,-3.2375,-3.2374,-3.2394,-3.2402,-3.2407,-3.2411,-3.2433,-3.2442,-3.2347,-3.2347,-3.2347,0,0,-3.2304,-3.2301,-3.2311,-3.2322,-3.2323,-3.2339,-3.2305,-3.2324,-3.2336,-3.2306,-3.2331,-3.2329,-3.2332,-3.2366,-3.2381,-3.2365,-3.2438,-3.2413,-3.2417,-3.2418,-3.2438,-3.2447,-3.2455,-3.235,-3.2349,-3.2349,0,0,-3.2359,-3.2359,-3.2384,-3.2386,-3.2388,-3.238,-3.2387,-3.2384,-3.2381,-3.2407,-3.2385,-3.24,-3.2423,-3.2427,-3.2431,-3.2492,-3.2474,-3.2497,-3.2533,-3.2555,-3.2562,-3.2568,-3.259,-3.2598,-3.2501,-3.2501,-3.2502,0,-3.2391,-3.2414,-3.2399,-3.2419,-3.2425,-3.2399,-3.2425,-3.2428,-3.2434,-3.2439,-3.2423,-3.2453,-3.2453,-3.2487,-3.2502,-3.2507,-3.2514,-3.2496,-3.2562,-3.2569,-3.2574,-3.2595,-3.2603,-3.2504,-3.2504,-3.2504,-3.2503,0,-3.2454,-3.2471,-3.2491,-3.2498,-3.2506,-3.2529,-3.2518,-3.2529,-3.2518,-3.2512,-3.254,-3.254,-3.2551,-3.2559,-3.2548,-3.2593,-3.2584,-3.2565,-3.2535,-3.2586,-3.2605,-3.2613,-3.2508,-3.2507,-3.2506,-3.2506,0,0,-3.2532,-3.2532,-3.2539,-3.2543,-3.2545,-3.2558,-3.2581,-3.2593,-3.2603,-3.2609,-3.2628,-3.265,-3.2633,-3.2639,-3.2628,-3.2647,-3.2696,-3.2626,-3.2626,-3.2639,-3.2747,-3.276,-3.2769,-3.2685,-3.2687,-3.2688,-3.2746,0,-3.2586,-3.2624,-3.2612,-3.2651,-3.2667,-3.2644,-3.2665,-3.2669,-3.2666,-3.2679,-3.2676,-3.2692,-3.2668,-3.2672,-3.269,-3.2686,-3.2717,-3.2682,-3.2703,-3.2704,-3.2701,-3.2779,-3.2792,-3.2847,-3.2754,-3.2755,-3.2756,0,-3.2653,-3.2662,-3.2703,-3.2704,-3.271,-3.2728,-3.2739,-3.2753,-3.2758,-3.2754,-3.2762,-3.2748,-3.2772,-3.2744,-3.2777,-3.2754,-3.2762,-3.2762,-3.2764,-3.2764,-3.2732,-3.278,-3.2864,-3.2873,-3.2767,-3.2766,-3.2766,0,-3.2705,-3.2728,-3.2755,-3.2759,-3.2761,-3.2775,-3.2777,-3.278,-3.2789,-3.2799,-3.2805,-3.2818,-3.2825,-3.2836,-3.2827,-3.2807,-3.2862,-3.2833,-3.286,-3.286,-3.2871,-3.287,-3.2957,-3.2878,-3.2878,-3.2878,-3.2878,0,-3.2765,-3.2791,-3.2779,-3.2796,-3.2825,-3.2812,-3.2841,-3.2841,-3.2845,-3.2862,-3.2844,-3.2861,-3.2848,-3.2864,-3.2858,-3.2887,-3.289,-3.2888,-3.2886,-3.2889,-3.2889,-3.2893,-3.2889,-3.288,-3.288,-3.2879,-3.2879,0,-3.2828,-3.2821,-3.2849,-3.285,-3.2851,-3.2872,-3.2873,-3.2889,-3.2886,-3.2908,-3.2912,-3.2907,-3.2925,-3.2918,-3.2937,-3.2933,-3.297,-3.2963,-3.2968,-3.2966,-3.2993,-3.2991,-3.3084,-3.3096,-3.3011,-3.3012,-3.3013,0,-3.2866,-3.2885,-3.2889,-3.2899,-3.2902,-3.2919,-3.2928,-3.2917,-3.2927,-3.2937,-3.2952,-3.2969,-3.2982,-3.3012,-3.301,-3.3026,-3.3019,-3.3051,-3.3021,-3.3024,-3.3019,-3.3017,-3.3019,-3.3056,-3.3057,-3.3058,-3.3058,0,-3.2935,-3.2931,-3.2945,-3.2958,-3.297,-3.2979,-3.2988,-3.2998,-3.2988,-3.3001,-3.3019,-3.3029,-3.305,-3.3067,-3.3081,-3.3084,-3.307,-3.3068,-3.3075,-3.3078,-3.308,-3.3079,-3.2983,-3.3066,-3.3065,-3.3064,-3.3064,-3.3064,-3.2986,-3.3003,-3.3008,-3.3024,-3.303,-3.3039,-3.3055,-3.3054,-3.3069,-3.3085,-3.3078,-3.31,-3.3107,-3.3125,-3.313,-3.3148,-3.3135,-3.3145,-3.3148,-3.315,-3.3154,-3.3079,-3.315,-3.315,-3.315,-3.315,-3.315,0,-3.3053,-3.3056,-3.3072,-3.3085,-3.3098,-3.3085,-3.3094,-3.3106,-3.3126,-3.3134,-3.3147,-3.317,-3.3187,-3.3188,-3.3205,-3.3219,-3.3213,-3.3223,-3.3222,-3.3223,-3.3164,-3.3156,-3.3228,-3.3228,-3.3228,-3.3228,-3.3228,-3.3228,-3.309,-3.3118,-3.3115,-3.3147,-3.315,-3.3171,-3.3178,-3.3186,-3.3193,-3.3218,-3.3233,-3.3234,-3.3239,-3.3257,-3.3273,-3.3273,-3.3279,-3.3292,-3.329,-3.3234,-3.3227,-3.3219,-3.3211,-3.3294,-3.3294,-3.3347,-3.3347,-3.3348]},{"header":{"parameterUnit":"m.s-1","parameterCategory":1,"la1":30.2991,"la2":30.254,"lo1":-89.0895,"lo2":-89.0444,"dy":0.0017,"dx":0.0017,"nx":28,"ny":28,"refTime":"2024-05-21T21:00:00:Z","depth":0,"parameterNumber":3,"parameterNumberName":"V-component_of_WINDS"},"data":[0,0,0,0,0,0,0,0,0,0,0,0,0,0,0,0,0,0,0,0,0,0,0,0,0,0,0,0,0,0,0,0,0,0,0,0,0,0,0,0,0,0,0,0,0,0,0,0,0,0,0,0,0,0,0,0,0,0,3.8967,3.8967,0,3.8975,3.8975,3.8975,3.9001,3.9001,3.9002,3.9002,3.9007,3.9006,3.9006,0,0,0,0,0,0,0,0,0,0,0,0,0,3.8971,3.8971,3.8967,3.8967,3.8968,3.8975,3.8975,3.8975,3.9001,3.9001,3.9002,3.9003,3.9007,3.9006,3.9006,0,0,0,0,0,0,0,0,0,0,0,0,0,3.8973,3.8971,3.8967,3.8981,3.8982,3.8975,3.8975,3.8975,3.9001,3.9001,3.9002,3.9003,3.9007,3.9006,3.9006,3.8985,0,0,3.9004,3.9004,0,0,0,0,0,0,0,0,3.8973,3.8973,3.8979,3.898,3.8982,3.8988,3.8978,3.8978,3.9,3.8994,3.9002,3.9003,3.9,3.9,3.8999,3.8985,3.8985,3.9004,3.9003,3.9003,3.9003,0,0,0,0,0,0,0,3.8973,3.8973,3.897,3.8979,3.8981,3.8986,3.8987,3.8978,3.8991,3.8994,3.8996,3.8997,3.9,3.9,3.8999,3.8985,3.9004,3.9003,3.9003,3.9003,3.8954,3.8954,0,0,0,0,0,0,3.8971,3.8973,3.897,3.8971,3.898,3.8985,3.8987,3.8985,3.8992,3.8994,3.8996,3.8998,3.9,3.9,3.9,3.8976,3.9003,3.9003,3.9002,3.8955,3.8954,3.8953,0,0,0,0,0,0,3.8971,3.8971,3.897,3.8972,3.8972,3.8984,3.8982,3.8985,3.8984,3.8993,3.8995,3.8993,3.9001,3.9,3.8989,3.8976,3.9002,3.9002,3.8956,3.8955,3.8954,3.8928,0,0,0,0,0,0,3.8971,3.8971,3.8963,3.8972,3.8972,3.8959,3.8981,3.8984,3.8983,3.8986,3.8991,3.8993,3.9002,3.8989,3.8988,3.8976,3.9001,3.8958,3.8956,3.8954,3.893,3.8926,3.8922,0,0,0,0,0,3.8971,3.8955,3.8963,3.8962,3.8964,3.8959,3.8959,3.8971,3.8982,3.8975,3.8981,3.8992,3.8978,3.8988,3.8986,3.8974,3.8958,3.8956,3.8954,3.8931,3.8926,3.8922,0,0,0,0,0,0,3.8943,3.8956,3.8965,3.8951,3.8954,3.8963,3.8954,3.8965,3.8963,3.8966,3.8979,3.898,3.8966,3.8969,3.898,3.8954,3.897,3.8968,3.8953,3.8948,3.8945,3.8944,3.9001,0,0,0,0,0,3.8935,3.8931,3.8943,3.8929,3.893,3.8942,3.894,3.8949,3.8952,3.8953,3.8958,3.8959,3.8955,3.8952,3.8948,3.893,3.8932,3.8921,3.8917,3.8914,3.8912,3.8903,3.8898,3.8947,3.8947,3.8947,0,0,3.8919,3.8926,3.8922,3.8923,3.8927,3.8921,3.8942,3.8936,3.8932,3.8951,3.8941,3.8945,3.8947,3.8932,3.8926,3.8934,3.8899,3.8911,3.8909,3.8908,3.89,3.8896,3.8892,3.8945,3.8946,3.8946,0,0,3.8887,3.8891,3.8881,3.8884,3.8889,3.8897,3.8895,3.8903,3.8906,3.8896,3.8911,3.8906,3.8899,3.89,3.89,3.8869,3.888,3.8867,3.8847,3.8839,3.8835,3.8831,3.8821,3.8817,3.8865,3.8865,3.8865,0,3.8865,3.8859,3.8874,3.8867,3.8867,3.8886,3.8875,3.8877,3.888,3.8879,3.8889,3.8881,3.8883,3.8869,3.8862,3.8861,3.8858,3.8867,3.8834,3.8831,3.8828,3.8818,3.8814,3.8863,3.8864,3.8864,3.8864,0,3.8833,3.8828,3.8819,3.8824,3.8823,3.8814,3.8826,3.8823,3.8832,3.8839,3.8829,3.8833,3.8832,3.8829,3.8837,3.8816,3.8821,3.8832,3.8848,3.8822,3.8813,3.8809,3.8861,3.8862,3.8862,3.8863,0,0,3.8782,3.8796,3.8792,3.8795,3.8802,3.8799,3.879,3.879,3.8787,3.8789,3.8782,3.8776,3.8787,3.8786,3.8795,3.8787,3.8763,3.8799,3.88,3.8793,3.8741,3.8732,3.8728,3.8771,3.877,3.8769,3.8741,0,3.8752,3.874,3.8754,3.8738,3.8734,3.8753,3.8746,3.8749,3.8755,3.8752,3.8758,3.8754,3.8768,3.8768,3.8761,3.8768,3.8753,3.877,3.8764,3.8763,3.8763,3.8723,3.8714,3.8687,3.8737,3.8736,3.8736,0,3.8715,3.8717,3.8702,3.8711,3.871,3.8704,3.8705,3.8702,3.8706,3.8711,3.8711,3.8722,3.8714,3.873,3.8719,3.873,3.8729,3.8731,3.8731,3.873,3.8748,3.8722,3.8678,3.8674,3.873,3.8731,3.8731,0,3.8681,3.8679,3.867,3.8672,3.8682,3.8677,3.8681,3.8686,3.8685,3.8686,3.8685,3.8684,3.8684,3.8682,3.8693,3.8704,3.868,3.8697,3.8684,3.8684,3.8678,3.8678,3.8634,3.8677,3.8677,3.8677,3.8677,0,3.8646,3.8636,3.8655,3.8649,3.8639,3.8654,3.8642,3.8648,3.8652,3.8648,3.8663,3.8658,3.8672,3.8668,3.8676,3.8666,3.8665,3.8669,3.8671,3.8668,3.8667,3.8667,3.8669,3.8676,3.8676,3.8676,3.8677,0,3.8605,3.8618,3.8609,3.862,3.8623,3.8614,3.8623,3.8618,3.8626,3.862,3.8619,3.8631,3.8627,3.8638,3.8635,3.8641,3.8626,3.8631,3.8625,3.8627,3.8613,3.8615,3.8567,3.8562,3.8608,3.8607,3.8607,0,3.8583,3.8576,3.8586,3.8585,3.8589,3.8586,3.8586,3.86,3.8599,3.8603,3.8598,3.8596,3.8595,3.8589,3.8596,3.8595,3.86,3.8584,3.86,3.8597,3.86,3.8601,3.86,3.858,3.8579,3.8579,3.8579,0,3.8541,3.8548,3.8547,3.8549,3.8549,3.855,3.8553,3.8551,3.8566,3.8564,3.8561,3.8561,3.856,3.8557,3.8558,3.8561,3.8572,3.8574,3.8571,3.8567,3.8564,3.8566,3.8616,3.8574,3.8575,3.8575,3.8575,3.8576,3.8509,3.8504,3.8511,3.851,3.8514,3.8516,3.8512,3.852,3.8519,3.852,3.8528,3.8524,3.8528,3.853,3.8532,3.8528,3.8536,3.8531,3.853,3.8529,3.8527,3.8565,3.8528,3.8528,3.8529,3.8529,3.8529,0,3.8468,3.8474,3.8473,3.8477,3.8477,3.8489,3.8492,3.8491,3.8487,3.8491,3.8491,3.8488,3.8486,3.8494,3.8493,3.8489,3.8494,3.8488,3.8488,3.8489,3.852,3.8523,3.8484,3.8484,3.8484,3.8484,3.8484,3.8484,3.8447,3.844,3.8447,3.8441,3.8447,3.8444,3.8445,3.8447,3.8451,3.8447,3.8446,3.8452,3.8457,3.8457,3.8456,3.8458,3.8457,3.845,3.8454,3.8482,3.8487,3.8491,3.8494,3.8449,3.8449,3.8423,3.8423,3.8423]}]]